Meteo orario Zagryaze

Oggi, 26 Novenbre, Giovedi

Tempo Temperatura Precipitazioni Vento Pressione Umidità
00:00 +3°C° 0.7 mm 3 m/s 753 mm Hg 96%
01:00 +4°C° 0.7 mm 3 m/s 753 mm Hg 96%
02:00 +5°C° 0 mm 3 m/s 753 mm Hg 97%
03:00 +5°C° 0.2 mm 3 m/s 752 mm Hg 95%
04:00 +5°C° 0.2 mm 3 m/s 752 mm Hg 94%
05:00 +5°C° 0.2 mm 3 m/s 751 mm Hg 92%
06:00 +5°C° 0 mm 3 m/s 751 mm Hg 90%
07:00 +5°C° 0 mm 3 m/s 751 mm Hg 88%
08:00 +5°C° 0 mm 3 m/s 751 mm Hg 88%
09:00 +5°C° 0 mm 3 m/s 751 mm Hg 86%
10:00 +5°C° 0 mm 4 m/s 751 mm Hg 85%
11:00 +5°C° 0 mm 4 m/s 750 mm Hg 84%
12:00 +5°C° 0.2 mm 4 m/s 750 mm Hg 85%
13:00 +5°C° 0.2 mm 4 m/s 750 mm Hg 86%
14:00 +5°C° 0.2 mm 4 m/s 750 mm Hg 86%
15:00 +4°C° 0.6 mm 4 m/s 749 mm Hg 87%
16:00 +4°C° 0.6 mm 4 m/s 749 mm Hg 88%
17:00 +4°C° 0.6 mm 4 m/s 748 mm Hg 89%
18:00 +4°C° 0.7 mm 4 m/s 748 mm Hg 89%
19:00 +4°C° 0.7 mm 4 m/s 748 mm Hg 90%
20:00 +3°C° 0.7 mm 4 m/s 748 mm Hg 90%
21:00 +4°C° 0.3 mm 4 m/s 748 mm Hg 90%
22:00 +4°C° 0.3 mm 3 m/s 747 mm Hg 90%
23:00 +4°C° 0.3 mm 3 m/s 747 mm Hg 90%

Domani, 27 Novenbre, Venerdi

Tempo Temperatura Precipitazioni Vento Pressione Umidità
00:00 +5°C° 0 mm 2 m/s 747 mm Hg 90%
01:00 +5°C° 0 mm 2 m/s 747 mm Hg 90%
02:00 +5°C° 0 mm 1 m/s 747 mm Hg 90%
03:00 +4°C° 0 mm 2 m/s 747 mm Hg 92%
04:00 +3°C° 0 mm 2 m/s 747 mm Hg 93%
05:00 +2°C° 0 mm 2 m/s 747 mm Hg 95%
06:00 +2°C° 0 mm 2 m/s 747 mm Hg 94%
07:00 +1°C° 0 mm 2 m/s 747 mm Hg 94%
08:00 +1°C° 0 mm 2 m/s 747 mm Hg 93%
09:00 +1°C° 0 mm 2 m/s 747 mm Hg 89%
10:00 +2°C° 0 mm 2 m/s 748 mm Hg 85%
11:00 +2°C° 0 mm 2 m/s 748 mm Hg 82%
12:00 +2°C° 0 mm 2 m/s 748 mm Hg 81%
13:00 +1°C° 0 mm 2 m/s 749 mm Hg 81%
14:00 +1°C° 0 mm 2 m/s 749 mm Hg 80%
15:00 +1°C° 0 mm 2 m/s 749 mm Hg 83%
16:00 -1°C° 0 mm 2 m/s 750 mm Hg 86%
17:00 -2°C° 0 mm 2 m/s 750 mm Hg 90%
18:00 -2°C° 0 mm 2 m/s 751 mm Hg 90%
19:00 -2°C° 0 mm 2 m/s 751 mm Hg 89%
20:00 -2°C° 0 mm 3 m/s 752 mm Hg 89%
21:00 -1°C° 0 mm 3 m/s 752 mm Hg 89%
22:00 -1°C° 0 mm 3 m/s 753 mm Hg 89%
23:00 0°C° 0 mm 3 m/s 753 mm Hg 90%

Dopodomani, 28 Novenbre, Sabato

Tempo Temperatura Precipitazioni Vento Pressione Umidità
00:00 0°C° 0 mm 3 m/s 754 mm Hg 89%
01:00 0°C° 0 mm 3 m/s 754 mm Hg 88%
02:00 0°C° 0 mm 4 m/s 755 mm Hg 87%
03:00 0°C° 0 mm 4 m/s 755 mm Hg 87%
04:00 +1°C° 0 mm 3 m/s 755 mm Hg 88%
05:00 0°C° 0 mm 3 m/s 755 mm Hg 88%
06:00 +1°C° 0 mm 3 m/s 756 mm Hg 89%
07:00 +1°C° 0 mm 3 m/s 756 mm Hg 91%
08:00 +1°C° 0 mm 3 m/s 757 mm Hg 92%
09:00 -1°C° 0 mm 4 m/s 757 mm Hg 92%
10:00 -1°C° 0 mm 4 m/s 758 mm Hg 91%
11:00 -1°C° 0 mm 4 m/s 758 mm Hg 91%
12:00 -1°C° 0 mm 4 m/s 758 mm Hg 89%
13:00 -1°C° 0 mm 4 m/s 759 mm Hg 87%
14:00 -1°C° 0 mm 4 m/s 759 mm Hg 84%
15:00 -1°C° 0 mm 3 m/s 759 mm Hg 85%
16:00 -1°C° 0 mm 3 m/s 760 mm Hg 85%
17:00 -1°C° 0 mm 3 m/s 760 mm Hg 85%
18:00 -1°C° 0 mm 3 m/s 760 mm Hg 86%
19:00 -1°C° 0 mm 3 m/s 761 mm Hg 87%
20:00 -2°C° 0 mm 3 m/s 761 mm Hg 88%
21:00 -2°C° 0 mm 3 m/s 761 mm Hg 88%
22:00 -2°C° 0 mm 3 m/s 761 mm Hg 88%
23:00 -2°C° 0 mm 3 m/s 761 mm Hg 88%

29 Novenbre, Domenica

Tempo Temperatura Precipitazioni Vento Pressione Umidità
00:00 -2°C° 0 mm 3 m/s 762 mm Hg 88%
01:00 -4°C° 0 mm 3 m/s 762 mm Hg 88%
02:00 -4°C° 0 mm 3 m/s 762 mm Hg 87%
03:00 -4°C° 0 mm 3 m/s 762 mm Hg 88%
04:00 -4°C° 0 mm 3 m/s 762 mm Hg 89%
05:00 -4°C° 0 mm 3 m/s 762 mm Hg 90%
06:00 -2°C° 0 mm 3 m/s 762 mm Hg 89%
07:00 -2°C° 0 mm 3 m/s 762 mm Hg 89%
08:00 -2°C° 0 mm 3 m/s 762 mm Hg 88%
09:00 -2°C° 0 mm 3 m/s 763 mm Hg 87%
10:00 -1°C° 0 mm 3 m/s 763 mm Hg 86%
11:00 -1°C° 0 mm 3 m/s 763 mm Hg 85%
12:00 -1°C° 0 mm 3 m/s 763 mm Hg 84%
13:00 -1°C° 0 mm 3 m/s 762 mm Hg 83%
14:00 -1°C° 0 mm 3 m/s 762 mm Hg 82%
15:00 -1°C° 0 mm 3 m/s 762 mm Hg 84%
16:00 -2°C° 0 mm 3 m/s 762 mm Hg 85%
17:00 -3°C° 0 mm 4 m/s 761 mm Hg 86%
18:00 -3°C° 0 mm 4 m/s 761 mm Hg 87%
19:00 -3°C° 0 mm 4 m/s 761 mm Hg 88%
20:00 -3°C° 0 mm 4 m/s 761 mm Hg 89%
21:00 -3°C° 0.1 mm 4 m/s 760 mm Hg 89%
22:00 -3°C° 0.1 mm 4 m/s 760 mm Hg 90%
23:00 -3°C° 0.1 mm 4 m/s 759 mm Hg 90%

30 Novenbre, Lunedi

Tempo Temperatura Precipitazioni Vento Pressione Umidità
00:00 -1°C° 0.1 mm 3 m/s 759 mm Hg 92%
01:00 -1°C° 0.1 mm 3 m/s 758 mm Hg 94%
02:00 0°C° 0.1 mm 3 m/s 758 mm Hg 96%
03:00 0°C° 0.2 mm 3 m/s 757 mm Hg 96%
04:00 +1°C° 0.2 mm 3 m/s 757 mm Hg 97%
05:00 +1°C° 0.2 mm 3 m/s 756 mm Hg 97%
06:00 +1°C° 0.2 mm 3 m/s 756 mm Hg 97%
07:00 +2°C° 0.2 mm 2 m/s 756 mm Hg 97%
08:00 +3°C° 0.2 mm 2 m/s 756 mm Hg 97%
09:00 +1°C° 0.3 mm 3 m/s 756 mm Hg 94%
10:00 +1°C° 0.3 mm 3 m/s 756 mm Hg 90%
11:00 0°C° 0.3 mm 4 m/s 756 mm Hg 87%
12:00 0°C° 0 mm 4 m/s 756 mm Hg 85%
13:00 0°C° 0 mm 3 m/s 756 mm Hg 83%
14:00 0°C° 0 mm 3 m/s 756 mm Hg 81%
15:00 -1°C° 0.1 mm 3 m/s 756 mm Hg 85%
16:00 -1°C° 0.1 mm 3 m/s 756 mm Hg 90%
17:00 -2°C° 0.1 mm 3 m/s 757 mm Hg 94%
18:00 -1°C° 0.2 mm 3 m/s 757 mm Hg 95%
19:00 -1°C° 0.2 mm 3 m/s 757 mm Hg 96%
20:00 -1°C° 0.2 mm 4 m/s 758 mm Hg 96%
21:00 -2°C° 0.1 mm 4 m/s 758 mm Hg 95%
22:00 -2°C° 0.1 mm 4 m/s 759 mm Hg 93%
23:00 -2°C° 0.1 mm 4 m/s 759 mm Hg 91%

1 Dicembre, Martedi

Tempo Temperatura Precipitazioni Vento Pressione Umidità
00:00 -2°C° 0 mm 4 m/s 760 mm Hg 90%
01:00 -3°C° 0 mm 4 m/s 760 mm Hg 90%
02:00 -3°C° 0 mm 4 m/s 760 mm Hg 90%
03:00 -3°C° 0 mm 4 m/s 761 mm Hg 90%
04:00 -3°C° 0 mm 4 m/s 761 mm Hg 90%
05:00 -4°C° 0 mm 4 m/s 761 mm Hg 90%
06:00 -3°C° 0 mm 4 m/s 761 mm Hg 89%
07:00 -3°C° 0 mm 4 m/s 761 mm Hg 88%
08:00 -3°C° 0 mm 4 m/s 761 mm Hg 88%
09:00 -2°C° 0 mm 4 m/s 761 mm Hg 87%
10:00 -2°C° 0 mm 4 m/s 761 mm Hg 87%
11:00 -1°C° 0 mm 5 m/s 761 mm Hg 86%
12:00 -1°C° 0 mm 5 m/s 761 mm Hg 88%
13:00 -1°C° 0 mm 5 m/s 761 mm Hg 89%
14:00 -1°C° 0 mm 5 m/s 761 mm Hg 91%
15:00 -1°C° 0.2 mm 5 m/s 761 mm Hg 92%
16:00 -2°C° 0.2 mm 5 m/s 761 mm Hg 93%
17:00 -2°C° 0.2 mm 5 m/s 761 mm Hg 95%
18:00 -2°C° 0.3 mm 5 m/s 761 mm Hg 94%
19:00 -2°C° 0.3 mm 5 m/s 761 mm Hg 94%
20:00 -2°C° 0.3 mm 4 m/s 761 mm Hg 93%
21:00 -2°C° 0.5 mm 4 m/s 761 mm Hg 94%
22:00 -2°C° 0.5 mm 4 m/s 761 mm Hg 94%
23:00 -2°C° 0.5 mm 4 m/s 761 mm Hg 95%
Mostrare altro

Abbiamo bisogno del tuo consenso

Meteoprog e i nostri fornitori di servizi possono memorizzare e accedere a dati personali come cookie, identificatori di dispositivi o altre tecnologie simili sul tuo dispositivo e possono elaborare tali dati per personalizzare i contenuti e gli annunci, nonché fornire funzionalità dei social media e analizzarne il traffico.

  • Archiviare e/o accedere alle informazioni sul tuo dispositivo

    Cookie, identificatori di dispositivi o altre informazioni possono essere memorizzati o resi accessibili sul tuo dispositivo per le finalità sopra indicate.

  • Annunci e contenuti personalizzati, misurazione di annunci e contenuti, approfondimenti sul pubblico e sviluppo di prodotti

    Gli annunci e i contenuti possono essere personalizzati in base a un profilo. È possibile aggiungere più dati per personalizzare meglio annunci e contenuti. È possibile misurare il rendimento degli annunci e dei contenuti. È possibile ricavare informazioni sul pubblico che ha visto gli annunci e i contenuti. Tali dati possono essere utilizzati per sviluppare o migliorare l'esperienza, i sistemi e il software dell'utente.

Cliccando su “Accetto”, acconsenti all'uso di cookie, identificatori di dispositivo, web beacon o altre tecnologie simili. Puoi modificare le impostazioni nel browser del tuo dispositivo.

Per determinati scopi, è possibile fare affidamento su interessi legali, piuttosto che sul consenso. Puoi approfondire questo argomento consultando la nostra Informativa sulla privacy e sui cookie.